User: anonymous   Login
Location: Unspecified
(0.0000°N, 0.0000°E)
Time: 14:14:30
(UTC+00:00)
Language:

GONETS M 08 (M18) - Orbit

View from above orbital plane
View from above orbital plane
View from above satellite
View from above satellite

Ground track
Ground track

The orbit data is extracted from the following two-line orbital elements,

1 40061U 14036A   18267.76157668 +.00000035 +00000-0 +18333-3 0  9994
2 40061 082.5061 260.5525 0028657 183.5834 263.2390 12.42881734191837
Epoch (UTC): 24 September 2018 18:16:40
Eccentricity: 0.0028657
inclination: 82.5061°
perigee height: 1472 km
apogee height: 1517 km
right ascension of ascending node: 260.5525°
argument of perigee: 183.5834°
revolutions per day: 12.42881734
mean anomaly at epoch: 263.2390°
orbit number at epoch: 19183

The dashed part of the orbit path shows where the satellite is in the earth's shadow,  

DLR